Theta_e
304 304 305 305 305 304 303 303 302 301 301 301 301 301 301 301 301 301 301 300 300 300 301 302 302 302 303 303 303 302 303 304 305 305 304 304 303 303 303 303 303 302 301 301 301 301 302 302 304 304 304 305 304 305 305 304 305 312 320 324 324 325 325 324 324 323 323 325 323 322 322 328 335 330 329 331 329 329 328 328 328 328 328 328 331 331 332 332
303 304 304 305 305 304 303 303 301 301 301 301 301 301 301 301 301 301 301 300 300 301 302 302 302 303 304 304 303 302 305 306 305 305 304 304 304 303 304 304 303 302 301 301 301 301 302 303 303 304 304 304 304 304 305 306 305 310 320 323 322 324 324 323 324 322 322 324 323 322 322 326 332 330 330 331 327 327 328 326 326 328 328 328 331 331 332 331
303 303 304 305 305 304 303 302 302 301 301 301 301 301 301 301 301 301 300 300 300 301 302 302 302 304 305 305 303 302 306 306 305 305 304 304 304 304 304 303 302 302 301 301 301 301 302 303 304 304 304 304 304 304 304 306 308 310 315 320 322 323 323 322 323 323 322 323 321 321 323 325 330 331 330 329 326 327 328 326 326 327 327 329 331 331 332 329
303 303 303 304 304 303 303 302 301 301 301 301 301 301 301 301 301 301 300 300 301 302 303 302 302 304 304 305 304 303 306 307 305 305 304 304 305 304 304 303 302 301 301 301 301 301 302 302 304 304 304 305 304 304 303 304 307 310 312 315 319 320 322 323 322 323 323 323 323 323 326 328 329 330 328 328 328 327 326 328 329 329 328 329 331 332 332 329
303 303 303 304 304 303 303 302 301 301 301 301 301 301 301 301 301 300 301 301 302 302 303 303 302 303 304 304 304 303 306 310 307 305 305 304 304 304 303 303 302 301 301 301 302 302 302 303 304 304 304 304 305 305 304 303 304 307 309 309 310 312 318 321 320 322 324 324 324 326 330 330 329 329 327 328 331 329 328 330 330 330 330 330 331 332 331 328
303 303 303 304 304 303 303 301 301 301 301 301 301 301 301 301 301 300 301 301 302 303 303 303 303 303 303 304 304 303 307 310 306 304 305 304 305 304 303 302 301 301 301 302 303 302 303 303 304 304 304 304 304 304 304 304 304 305 306 306 305 307 311 314 315 318 320 320 322 326 329 329 328 329 327 327 329 329 329 330 330 330 331 330 331 332 331 329
303 303 303 304 304 303 303 301 301 301 301 301 301 301 301 301 301 301 301 302 303 303 303 303 303 304 303 304 304 304 307 306 305 305 305 305 305 304 303 302 301 301 301 302 303 303 303 303 303 304 303 304 304 304 304 304 304 304 306 305 304 305 306 308 310 314 316 317 320 324 327 327 327 329 328 327 327 328 329 330 329 329 330 330 331 331 331 330
302 302 303 304 304 303 303 301 301 301 301 301 301 301 301 301 301 301 302 302 303 303 303 303 304 304 304 304 304 305 307 305 304 305 305 305 305 304 304 304 303 302 302 303 303 303 303 303 303 303 303 304 304 304 304 304 304 305 306 305 304 305 306 306 308 311 314 317 320 322 325 326 326 327 326 326 328 328 327 328 328 329 329 329 330 330 329 328
302 302 303 304 304 303 303 301 301 301 301 301 301 301 301 301 301 302 302 303 303 303 303 303 303 304 304 305 304 306 307 305 305 305 305 305 305 304 304 304 304 303 303 304 304 304 304 303 304 304 304 304 304 304 304 305 305 305 305 306 306 307 308 307 307 309 312 318 321 323 325 325 325 326 326 325 326 326 326 328 328 328 328 328 329 329 328 328
302 302 303 304 304 303 303 301 301 301 301 301 301 301 301 301 301 302 302 302 303 302 303 303 303 304 304 305 305 308 307 304 305 306 306 305 305 305 304 304 304 303 303 303 304 304 304 304 304 305 305 304 304 304 304 305 306 305 305 307 307 308 309 307 308 309 312 318 322 325 326 325 324 327 326 323 323 325 325 326 327 327 327 328 328 328 328 327
302 302 302 304 304 303 303 301 301 301 301 301 302 302 301 301 301 302 302 302 302 302 303 302 303 304 304 304 306 308 306 305 306 306 306 305 305 305 305 305 304 304 304 303 304 303 303 304 304 305 305 305 305 305 305 305 305 305 305 307 308 308 309 310 311 311 314 320 323 323 324 324 325 326 326 323 321 324 325 324 325 326 327 327 328 327 327 326
302 302 302 304 304 303 303 301 301 302 302 301 302 301 301 301 301 301 302 302 302 301 302 302 303 305 304 305 307 306 306 306 306 306 306 305 305 305 305 305 304 304 304 304 304 303 302 303 304 305 305 305 306 306 306 305 305 304 304 308 310 310 311 312 312 312 316 321 322 322 323 324 326 325 324 323 321 323 325 324 324 325 326 326 327 326 325 326
302 302 303 304 303 303 302 301 301 302 302 301 302 301 301 301 301 301 301 301 301 301 301 301 303 305 304 305 306 305 306 306 306 306 305 305 305 305 305 305 304 304 304 304 305 304 302 302 303 305 305 306 306 306 305 304 303 303 304 308 312 312 313 312 311 314 318 321 321 322 324 326 326 323 322 322 321 322 323 323 324 325 325 325 326 325 324 325
302 302 302 303 303 303 302 301 302 302 302 302 302 301 301 301 301 301 301 301 301 301 301 301 304 305 304 306 306 305 305 306 306 305 305 305 305 306 306 305 304 303 304 304 304 304 303 302 303 304 305 305 305 305 305 304 305 306 306 309 312 312 314 314 313 317 321 320 320 322 323 326 326 323 321 321 321 322 322 322 323 324 324 325 324 324 324 324
302 301 302 303 303 303 301 301 302 302 302 302 301 301 301 301 301 301 301 301 300 300 300 302 305 305 304 306 306 305 305 305 305 305 305 306 306 306 306 305 304 302 303 304 304 304 304 303 303 304 304 304 304 305 305 306 309 311 308 309 312 311 314 315 313 316 321 319 319 320 322 325 325 322 321 320 321 322 322 322 323 323 323 324 324 323 323 322
302 301 302 303 303 302 301 301 302 302 302 302 301 301 301 301 301 301 301 300 300 300 301 303 305 305 306 307 305 305 305 305 305 305 306 306 306 307 306 304 304 303 302 303 304 304 305 303 303 304 304 304 305 305 305 305 309 310 307 309 311 311 312 314 313 315 319 319 317 319 322 324 324 322 321 320 321 321 321 322 322 323 323 323 323 322 322 321
302 301 302 303 303 302 301 301 302 302 302 302 301 301 301 301 301 300 301 301 301 301 301 304 305 304 306 306 305 305 305 305 305 305 307 307 306 307 306 305 304 303 303 304 304 305 305 303 304 304 304 304 305 305 305 305 306 306 307 308 309 311 312 313 315 315 317 319 319 320 322 322 322 322 321 321 321 321 321 321 322 322 322 322 321 321 321 320
301 301 302 303 303 301 301 302 302 302 302 301 301 301 300 300 301 301 302 303 302 302 303 305 305 306 307 305 304 305 305 306 305 306 307 307 307 307 307 306 304 303 303 305 305 305 305 303 304 304 304 304 304 305 305 304 304 305 306 307 307 310 311 312 314 316 317 318 319 320 321 321 321 321 320 321 321 322 321 321 321 321 321 321 320 320 320 320
301 301 303 303 302 301 301 302 302 301 301 301 301 300 300 301 301 303 304 303 302 302 305 305 304 306 305 304 304 305 305 306 305 306 307 307 307 307 307 306 305 304 304 306 306 305 305 304 303 304 304 304 304 305 304 305 306 306 307 308 308 309 310 311 312 314 317 318 319 320 321 321 321 320 320 321 321 321 321 320 321 321 320 320 320 319 319 320
301 301 303 303 302 301 301 302 301 301 301 301 301 300 301 302 302 304 303 302 301 302 303 303 303 304 304 303 304 305 306 306 306 306 307 308 307 307 307 307 306 306 306 307 307 305 304 305 304 305 305 304 304 304 304 305 306 306 307 308 308 309 310 310 311 314 316 318 318 319 320 320 321 321 320 321 321 320 320 320 320 319 319 319 319 318 318 318
300 301 303 303 301 301 301 301 301 301 301 301 301 301 301 300 301 302 301 301 302 302 302 302 303 303 303 304 304 305 306 306 307 307 307 307 307 307 308 307 307 307 306 306 306 304 304 305 305 305 304 304 304 304 304 304 304 304 306 307 307 308 309 310 312 315 316 317 318 319 320 320 320 321 320 320 320 320 320 320 319 319 319 318 318 317 317 317
300 301 303 302 301 301 301 301 301 300 301 301 301 301 301 300 300 300 300 300 301 301 303 303 303 303 304 304 304 305 306 306 307 308 308 307 307 308 307 307 308 308 306 305 305 305 305 305 305 304 303 304 306 305 304 304 304 305 305 306 306 307 309 310 312 314 315 316 319 319 319 318 319 320 320 320 320 319 320 319 319 319 318 318 317 317 316 316
300 301 303 302 301 301 301 301 300 300 300 300 300 301 300 300 300 299 299 301 302 302 303 305 305 304 305 305 305 305 306 306 307 307 308 307 307 307 307 307 309 308 307 307 307 307 306 306 306 304 305 306 307 307 305 304 305 306 306 307 307 308 309 311 313 314 314 315 317 319 319 319 319 318 319 320 320 320 320 319 319 318 318 317 317 317 316 316
300 301 302 302 301 301 301 300 300 300 300 300 300 300 300 301 300 299 299 300 302 303 303 304 305 304 306 305 305 305 306 306 307 307 308 308 307 307 307 307 308 309 308 308 308 307 307 307 306 306 307 307 307 307 306 306 306 307 307 308 308 308 309 311 314 315 315 315 316 318 320 320 319 318 318 319 320 319 319 318 318 318 317 316 316 316 315 316
300 301 302 302 300 300 301 300 300 300 300 300 300 300 300 300 300 299 300 303 306 306 304 304 305 305 305 305 305 305 305 306 307 307 308 308 308 307 307 307 308 310 310 310 309 308 308 307 306 306 307 306 307 308 307 307 308 308 308 308 308 308 309 311 314 315 317 318 316 318 321 321 319 319 318 319 320 319 318 318 318 318 317 316 316 315 314 314
299 301 302 301 300 300 300 300 300 300 300 300 300 301 301 301 300 299 302 310 313 307 303 304 306 306 305 305 305 305 307 308 307 307 308 308 308 307 308 308 308 310 311 309 309 309 309 307 306 307 306 306 307 308 307 307 309 310 310 310 309 309 310 312 314 315 319 318 315 317 320 321 320 319 318 319 320 320 319 318 317 317 316 316 316 315 315 314
300 301 302 301 300 300 300 301 300 300 301 301 300 301 300 301 300 299 304 314 311 303 301 304 306 306 305 304 304 306 309 309 308 308 308 308 308 307 309 310 309 310 309 308 309 310 310 309 308 307 306 307 308 308 308 308 309 312 312 311 310 309 311 312 313 314 316 317 315 316 320 321 320 320 319 319 321 320 319 319 318 317 316 315 316 316 315 315
300 301 302 301 300 300 301 302 300 300 301 301 301 300 301 301 300 302 309 312 304 301 303 305 305 305 304 304 304 306 307 307 309 310 307 308 309 307 308 309 309 310 309 308 311 311 309 309 308 307 306 308 309 308 307 308 310 312 313 312 311 310 311 311 312 313 314 317 318 317 319 321 320 319 319 319 321 321 320 319 318 317 317 316 316 316 315 315
299 301 301 301 300 300 301 301 300 300 301 301 300 300 301 300 299 305 313 307 300 302 304 303 305 305 303 304 306 306 305 307 308 308 307 308 309 308 309 308 307 309 309 308 310 310 309 308 306 305 306 307 308 306 306 307 309 311 312 313 312 311 311 311 312 314 316 318 320 318 318 320 320 318 320 320 321 321 320 319 318 317 317 316 316 316 315 314
299 301 301 300 300 299 300 300 300 301 301 300 300 301 300 300 305 312 311 303 300 302 303 303 303 303 303 306 308 305 304 305 306 306 307 308 308 307 307 307 306 308 309 309 310 310 308 307 304 303 305 305 305 305 305 306 308 311 313 314 314 312 311 312 314 316 317 319 320 319 318 320 321 319 319 321 321 320 319 318 318 317 317 317 316 316 315 314
300 301 301 300 300 299 300 300 300 300 300 299 300 300 300 304 313 316 304 299 302 302 303 304 302 303 304 304 307 308 304 304 305 306 308 308 308 307 306 307 307 308 310 310 311 310 310 309 307 305 305 303 305 309 308 307 308 312 315 316 315 315 314 315 316 317 319 319 319 319 318 320 323 321 317 319 320 319 319 318 318 318 317 317 317 316 316 315
300 301 300 300 299 300 300 300 300 300 299 300 299 300 304 308 311 311 303 301 303 304 303 303 302 304 305 302 306 309 306 306 306 306 308 309 308 308 306 306 306 309 313 312 311 312 313 313 309 307 306 305 309 313 311 310 311 313 316 317 317 318 318 318 318 318 319 318 316 317 319 320 321 319 316 317 320 319 318 318 318 318 318 318 317 317 316 315
300 301 300 300 299 299 301 301 300 299 300 300 299 302 311 315 308 305 305 304 302 301 301 303 304 304 304 304 307 307 305 307 307 305 306 306 308 308 306 304 305 308 312 311 310 313 316 315 311 311 310 307 310 313 312 312 312 313 315 316 318 319 320 321 319 318 319 317 315 315 318 321 322 318 315 316 317 317 318 318 318 318 318 318 317 317 316 315
300 301 300 299 299 299 300 300 299 300 300 299 301 305 309 311 306 302 305 306 302 301 301 302 304 305 305 306 306 305 306 307 306 306 308 308 310 310 306 305 305 306 308 310 311 312 315 315 314 314 312 310 311 311 310 311 311 311 310 312 315 317 318 321 321 320 319 317 316 316 318 321 322 318 314 313 312 314 317 318 318 318 318 318 317 317 317 316
300 301 299 299 299 299 300 299 299 300 299 300 306 309 307 306 305 304 307 307 303 303 303 301 303 306 309 309 307 304 304 306 306 306 309 309 309 308 307 307 306 304 306 310 311 310 313 317 317 314 311 310 311 309 307 310 312 311 308 311 314 312 313 318 319 318 318 318 317 317 318 317 318 317 313 312 313 315 317 318 318 318 318 318 318 317 317 317
300 300 299 299 299 299 300 299 299 299 299 304 310 313 313 309 303 304 306 304 302 303 304 305 306 307 309 310 310 307 302 304 306 306 309 308 306 306 306 306 305 304 305 308 311 310 311 317 317 314 311 311 310 307 306 308 311 311 309 311 311 309 310 316 320 318 318 320 318 317 317 315 316 318 314 314 318 317 317 318 318 318 318 318 318 318 318 317
299 299 299 299 299 299 299 299 299 299 300 306 310 311 310 304 300 303 304 301 301 302 304 307 306 305 306 307 311 309 303 304 306 306 309 309 306 305 306 306 304 302 302 304 308 309 309 313 315 314 313 311 306 306 307 305 306 310 310 309 309 309 310 314 319 320 319 320 317 314 315 314 316 319 314 314 319 319 317 318 318 318 318 318 318 318 318 318
299 300 299 299 299 299 299 299 298 299 301 305 311 310 304 299 298 299 300 299 300 302 305 306 303 303 304 305 309 308 304 307 308 306 308 310 307 305 305 305 302 300 300 301 306 308 307 313 317 314 312 311 307 308 309 306 305 307 307 306 310 313 313 314 318 320 320 319 316 314 313 312 313 313 310 311 316 318 319 318 318 319 318 318 318 318 318 318
299 300 299 299 299 298 299 298 298 300 302 306 313 311 301 298 298 297 298 299 299 302 305 304 301 302 303 303 306 306 304 306 306 306 307 307 307 305 303 303 302 301 299 300 306 308 306 312 319 315 310 310 311 310 308 305 304 306 306 306 308 310 310 312 314 315 317 319 317 315 315 315 312 309 307 307 309 314 320 319 319 319 318 318 318 318 318 318
299 301 302 299 298 298 298 299 300 303 305 304 308 307 299 299 299 297 298 299 298 300 304 302 301 303 304 303 303 304 304 305 305 306 306 306 307 307 303 301 301 301 299 299 303 305 306 310 315 316 313 312 312 308 304 304 304 305 306 305 305 307 308 310 310 309 313 317 317 317 318 315 311 308 306 306 307 312 318 319 319 319 319 319 319 318 319 319
300 304 303 298 298 299 298 300 301 303 306 304 301 301 299 300 300 297 298 298 298 298 299 301 302 302 304 303 302 302 304 306 306 305 307 307 306 307 304 301 300 301 301 302 304 304 306 308 310 315 315 313 312 305 300 302 302 302 305 304 303 306 309 312 312 309 310 312 313 317 318 314 310 307 306 307 308 310 314 317 318 319 319 319 319 319 319 319
302 305 303 298 298 299 299 302 300 300 306 304 299 299 300 300 299 298 298 298 298 297 296 299 301 301 303 303 302 302 303 305 307 305 306 307 305 306 305 301 300 300 301 305 305 302 303 305 308 314 314 309 307 300 296 298 299 300 303 303 304 306 307 311 313 310 309 309 309 312 315 314 310 306 305 306 305 306 312 315 316 318 319 319 319 319 319 320
302 303 301 298 298 298 301 304 301 302 305 300 296 297 299 299 298 298 297 297 298 298 297 299 299 300 302 301 301 302 302 304 306 305 306 307 306 307 304 301 300 300 301 304 304 301 302 304 307 314 317 312 307 301 297 296 300 304 305 304 305 305 304 306 308 309 310 309 309 313 316 316 310 302 300 301 303 306 312 314 314 316 318 318 319 319 319 320
302 301 299 298 298 299 303 306 306 308 305 297 296 297 298 297 297 298 299 298 298 299 300 301 299 298 299 298 300 303 301 303 304 304 305 306 307 305 303 302 301 300 301 302 301 301 303 304 307 313 318 316 313 311 307 304 305 306 306 305 305 304 304 305 306 310 311 307 307 313 315 313 310 305 301 302 305 309 311 313 315 315 316 317 318 319 319 319
302 301 299 297 298 299 302 305 306 311 306 300 300 300 298 298 297 298 299 298 297 298 299 300 298 297 299 298 300 303 301 301 304 304 304 305 307 305 302 302 301 300 301 300 299 301 302 304 306 311 313 310 309 310 308 307 306 305 305 305 304 303 304 306 310 313 311 306 307 311 310 308 307 306 305 305 306 308 308 311 314 314 315 317 317 318 318 318
301 302 300 298 298 298 300 300 301 307 307 302 302 300 300 301 298 297 298 298 297 296 297 297 296 297 299 300 302 305 303 301 301 303 305 307 310 306 302 303 302 300 301 299 299 301 303 305 304 307 312 312 310 308 304 303 305 306 306 305 303 302 302 306 312 312 308 307 308 308 307 306 305 304 305 305 306 307 306 308 311 313 314 315 315 316 316 316
301 302 302 300 299 299 300 299 298 302 303 302 301 300 300 302 300 297 298 298 297 296 296 296 295 298 301 302 304 306 305 303 302 303 305 308 308 305 301 302 302 301 301 299 299 301 306 308 302 303 309 309 306 304 300 300 303 303 304 304 303 302 303 309 313 309 308 311 309 307 308 307 305 304 305 305 305 306 305 304 307 310 310 312 314 314 315 315
301 301 301 300 301 301 301 302 300 299 300 300 300 300 301 303 302 301 300 297 296 297 297 297 298 300 302 303 305 306 306 305 304 305 307 306 306 306 305 303 302 300 300 299 298 300 306 308 302 301 308 307 302 301 299 299 300 300 301 302 302 303 304 309 309 304 308 315 311 308 310 307 304 306 307 307 305 304 304 304 305 306 307 309 310 312 314 315
301 301 300 300 301 301 301 302 300 299 300 300 302 302 302 304 304 302 299 297 298 297 296 299 302 302 302 303 304 306 307 305 303 305 307 306 306 307 307 306 303 300 300 301 299 298 303 308 303 300 307 308 303 299 298 298 299 302 303 300 300 302 302 305 306 303 306 312 310 310 311 307 306 308 308 306 304 302 303 303 303 304 305 306 307 308 310 313
301 301 300 300 300 299 300 300 299 301 301 300 303 302 301 304 306 302 298 299 303 301 296 300 306 303 300 301 302 305 308 307 305 305 305 305 306 306 305 304 303 301 302 304 302 299 301 305 301 300 307 309 303 299 299 298 298 304 308 303 302 304 302 303 305 304 306 309 308 309 310 308 305 305 304 303 303 302 302 302 303 303 303 304 304 304 306 308
302 302 300 300 301 300 300 299 298 302 303 301 303 304 302 305 305 302 300 300 302 302 299 300 304 302 299 299 302 303 304 304 304 304 303 303 304 304 302 301 300 302 304 305 303 303 304 304 301 302 306 306 303 301 301 297 296 304 309 305 304 304 303 303 303 303 306 310 309 309 309 308 304 301 301 302 302 302 302 303 303 303 303 303 303 303 303 304
301 302 300 300 302 301 300 299 298 302 305 301 302 303 302 302 300 299 301 301 298 300 300 297 299 302 303 302 303 302 300 300 301 301 301 300 300 300 300 299 298 299 302 303 303 303 304 304 304 304 305 307 304 300 300 301 305 310 308 302 302 302 302 302 301 302 304 306 310 311 309 308 304 301 303 304 303 303 303 302 302 302 302 302 302 302 303 303
Wind_Speed
5 6 7 7 6 5 4 3 2 2 1 1 2 3 3 3 3 5 6 8 10 11 12 14 15 16 17 18 17 13 12 10 8 7 9 11 11 12 15 19 23 23 20 16 14 11 6 5 5 4 5 3 3 4 4 6 10 8 1 4 8 7 7 5 7 6 3 2 5 11 16 14 6 9 16 13 15 22 19 11 14 13 10 24 28 39 49 37
5 5 6 7 6 5 4 3 3 2 2 1 2 3 3 3 4 5 6 8 9 11 12 13 14 16 17 18 16 11 10 8 8 9 10 11 10 12 16 21 23 21 19 15 14 12 7 5 5 4 5 5 4 4 3 3 7 8 2 4 8 5 4 3 6 9 7 6 8 12 14 15 14 18 22 12 10 20 16 8 12 15 16 23 31 45 48 39
5 6 6 7 6 5 5 3 2 2 1 1 2 3 3 3 4 5 7 8 9 11 12 12 12 14 18 19 14 10 7 4 8 10 10 12 12 14 19 22 22 19 17 14 13 11 6 6 7 6 7 7 5 5 6 4 3 6 5 5 5 3 5 6 6 9 11 11 11 15 14 14 19 25 25 17 14 16 16 16 16 19 24 28 40 51 46 41
5 6 6 7 5 4 6 4 1 1 1 2 2 3 3 3 4 5 6 8 9 10 12 12 11 12 17 19 14 10 4 2 7 10 10 14 14 17 21 21 20 18 16 12 10 8 6 6 5 6 7 6 7 8 7 6 4 4 5 4 4 5 6 9 9 7 10 8 7 12 10 9 17 20 20 23 16 7 14 28 27 25 31 36 48 53 45 43
5 6 6 6 5 5 6 4 1 1 0 2 3 4 3 3 4 5 6 7 9 10 13 12 11 11 15 19 15 10 5 1 5 11 12 16 17 19 20 19 18 16 14 11 8 6 4 4 4 5 5 4 7 7 5 7 7 5 5 7 10 9 5 11 16 10 9 9 9 6 6 8 16 12 15 25 15 10 22 31 32 33 35 39 52 54 46 44
5 6 5 5 4 5 6 4 2 1 1 2 3 4 4 3 4 4 5 7 8 10 12 13 13 12 15 20 16 9 5 2 5 11 13 18 18 17 17 18 16 14 13 9 7 5 3 4 4 5 5 4 5 4 7 12 10 4 5 9 14 15 8 14 22 17 14 15 13 5 4 8 15 6 13 22 9 15 31 32 33 35 35 41 54 56 50 48
5 5 5 5 5 5 6 4 2 1 1 3 4 4 4 3 3 4 5 7 8 10 12 13 14 15 17 19 13 6 6 4 6 10 14 19 18 13 13 15 13 11 11 8 6 5 5 6 5 5 4 3 5 5 9 16 13 4 4 9 14 19 16 17 23 23 19 16 13 9 6 6 9 5 12 18 8 12 28 30 33 36 38 46 55 55 52 53
4 5 5 5 4 5 6 4 2 1 2 3 4 5 5 4 3 4 5 6 8 10 11 13 14 16 19 19 13 5 4 4 7 9 15 19 15 10 9 11 10 9 7 7 6 6 8 6 4 5 2 2 4 6 9 13 10 3 4 9 12 15 18 20 23 25 20 13 13 11 8 6 4 3 10 16 11 11 23 28 32 38 43 49 53 51 49 51
4 4 5 4 4 5 5 4 2 1 2 4 5 6 5 4 3 4 4 5 8 10 11 13 14 16 19 18 13 5 2 5 8 12 16 16 13 10 9 9 9 6 5 5 6 7 8 4 3 4 3 5 6 7 9 6 4 3 5 11 12 13 17 19 22 24 18 10 10 9 8 8 5 3 6 14 13 12 20 27 34 42 45 48 50 48 48 49
4 4 4 4 4 5 5 4 1 1 2 4 6 6 6 5 4 3 3 5 7 9 12 13 14 15 18 18 12 4 4 8 9 12 14 12 13 12 11 11 9 6 4 5 7 8 9 6 5 5 4 7 6 8 8 3 3 9 12 14 14 14 16 17 20 23 16 9 11 9 7 9 8 3 3 9 14 16 20 29 38 44 46 46 47 46 46 47
4 4 4 4 5 6 5 3 1 1 2 4 6 7 7 5 4 2 1 4 6 9 12 14 15 15 17 17 9 3 7 8 8 12 13 13 15 14 13 12 10 7 5 4 5 7 9 9 7 5 3 4 5 8 10 5 6 14 14 13 13 13 13 13 16 19 11 6 11 8 3 5 8 4 4 10 17 21 24 31 39 42 45 45 45 44 43 44
4 4 4 4 6 6 5 3 1 1 3 4 6 7 6 6 4 2 1 4 6 10 12 15 16 16 18 15 5 4 8 7 8 12 13 14 16 15 13 11 9 8 6 4 4 5 8 10 8 5 5 4 4 5 7 8 11 15 11 6 9 9 8 9 11 14 6 5 8 6 1 5 8 3 6 16 21 25 30 35 37 37 41 42 43 42 40 43
3 4 4 5 7 7 5 2 1 2 3 5 6 7 6 5 4 2 3 5 8 10 12 14 17 17 18 13 3 5 7 6 10 13 14 16 15 13 12 9 8 8 7 5 4 5 5 9 9 7 7 5 4 6 10 15 12 11 7 1 4 6 6 8 9 10 5 5 10 11 3 7 8 5 12 20 23 28 33 36 36 34 35 38 39 39 39 43
3 3 4 6 7 7 5 2 1 2 3 5 6 6 6 5 4 3 5 6 8 10 11 14 16 16 17 10 2 6 8 7 12 14 15 15 13 11 11 8 8 9 9 6 5 5 4 5 9 8 9 9 9 9 11 12 6 4 5 1 1 3 4 5 6 7 4 5 13 12 6 6 5 8 19 22 25 32 33 32 34 33 32 35 36 36 39 41
2 3 5 6 7 7 4 1 1 2 3 5 6 6 6 4 3 3 5 7 8 9 11 14 14 15 15 7 3 9 12 11 13 14 14 13 11 12 12 9 7 8 9 7 6 6 5 4 8 7 8 9 7 6 4 4 2 1 3 2 1 3 3 6 4 9 6 3 13 12 5 5 3 10 24 25 26 31 30 30 31 31 31 33 34 35 38 37
2 3 5 6 7 6 2 1 1 2 3 4 5 5 5 5 4 4 5 7 8 7 10 12 13 14 10 4 7 12 13 15 14 11 10 10 10 12 13 10 6 5 7 7 5 5 4 5 7 7 7 4 2 2 2 3 3 1 2 3 3 3 3 5 6 8 9 3 9 12 5 2 2 11 24 27 29 29 26 27 30 30 30 32 33 35 36 35
2 3 5 6 7 5 2 1 2 3 4 5 4 5 5 5 4 4 6 8 6 7 10 8 12 14 4 2 12 14 15 17 13 9 9 9 10 12 13 10 6 4 5 5 5 5 5 5 5 4 4 2 2 3 1 3 4 2 1 3 3 3 3 3 4 6 9 6 8 11 7 2 2 11 22 24 26 27 25 27 30 30 29 30 32 33 34 35
2 3 5 6 6 3 2 1 2 3 4 4 4 4 4 5 5 6 8 6 5 7 7 5 9 9 2 6 15 16 18 17 11 8 8 8 9 11 11 9 6 4 3 3 5 6 6 4 3 1 2 2 2 3 4 5 5 4 3 2 3 3 3 5 5 4 7 7 7 10 9 5 2 8 18 21 23 25 26 27 29 29 29 30 31 32 33 35
2 3 4 6 5 2 2 2 3 4 4 4 3 3 4 4 5 6 5 4 5 4 2 5 7 2 6 14 17 17 18 14 10 8 8 9 9 11 10 8 6 4 1 0 3 6 6 2 0 1 2 4 5 6 9 7 5 5 5 4 3 3 4 5 6 5 7 7 8 11 10 7 5 6 13 19 20 22 24 25 26 26 28 30 30 32 34 35
1 2 4 5 4 2 2 2 3 4 4 3 2 2 2 3 3 4 3 5 6 4 4 8 9 8 13 17 18 18 16 12 9 8 8 9 9 11 9 7 5 3 2 3 3 4 6 2 3 5 6 8 9 10 11 7 4 3 2 3 4 4 5 5 6 6 8 7 9 12 10 9 9 7 12 18 16 15 19 24 25 25 26 30 32 32 33 33
0 1 3 5 3 2 2 2 3 4 3 3 1 1 1 0 1 3 5 5 3 4 7 9 11 13 15 16 17 18 16 13 10 8 9 10 9 9 6 3 1 2 3 5 3 3 5 4 7 10 10 10 9 8 9 8 7 6 4 4 5 6 6 6 6 6 8 7 8 12 10 8 11 9 12 17 13 12 19 23 26 29 29 30 31 31 31 31
0 1 2 4 2 2 2 3 4 4 3 2 0 0 0 2 2 4 5 4 3 5 7 8 10 13 14 14 15 15 13 10 9 10 10 9 8 6 3 3 2 3 3 3 2 1 3 7 12 12 9 7 6 6 7 8 8 7 6 5 6 5 4 6 6 5 7 5 6 12 10 6 9 9 10 17 16 17 24 24 25 31 32 31 31 32 32 32
1 1 2 3 2 2 2 3 5 4 3 2 0 1 2 3 3 4 4 3 4 4 4 6 8 12 12 10 12 12 10 7 7 11 11 7 8 6 4 4 4 4 2 3 3 3 3 7 9 9 6 6 6 5 6 6 6 6 6 5 6 5 3 4 5 6 9 6 5 10 10 4 5 5 5 13 15 14 21 23 22 25 28 30 33 33 35 36
3 2 1 2 2 3 3 4 5 4 3 2 1 1 2 4 3 4 3 1 3 3 3 6 8 10 10 10 11 10 10 9 8 10 12 8 7 5 5 5 4 4 3 5 6 6 9 8 5 5 5 7 8 6 6 5 5 7 8 8 7 7 9 7 3 4 9 8 6 7 7 2 5 5 4 6 9 10 15 18 19 21 21 22 23 25 30 34
4 3 2 2 3 4 4 5 5 4 3 2 1 1 3 4 3 3 3 2 2 4 3 5 7 6 8 9 10 11 11 10 9 13 14 10 7 5 5 4 3 3 4 5 5 6 10 8 2 2 6 9 10 8 8 8 5 7 9 11 11 10 11 7 2 3 6 6 7 8 7 3 5 8 7 4 5 8 13 16 17 19 18 19 21 21 25 29
5 3 2 3 4 4 5 5 5 4 3 2 1 1 2 2 2 2 2 4 3 5 3 3 3 4 7 9 13 14 8 6 11 14 13 10 7 5 5 3 3 4 4 3 4 3 4 2 3 3 7 8 9 8 8 9 7 6 6 11 14 10 8 6 3 4 5 3 4 7 7 4 4 7 8 6 5 7 10 12 16 19 19 22 26 25 27 28
6 4 3 4 5 5 5 4 4 5 3 2 1 1 2 1 2 1 2 5 3 4 3 2 2 4 7 12 15 10 3 9 14 11 9 8 6 5 4 3 2 4 2 2 3 2 2 2 2 2 4 5 6 5 5 10 7 5 3 8 12 11 9 7 5 4 4 2 3 3 4 5 3 5 7 8 7 7 8 8 12 18 20 22 27 28 30 31
7 5 4 5 6 6 5 4 4 5 3 2 1 0 1 1 0 1 4 4 2 2 1 3 3 5 11 16 11 5 6 10 7 7 11 9 6 4 4 5 3 5 4 1 3 1 1 3 3 2 3 3 3 3 3 8 7 4 2 6 9 12 9 5 4 5 4 4 4 3 3 4 2 3 6 8 9 8 9 9 11 17 21 23 27 29 30 32
7 6 5 5 6 6 5 4 4 4 4 3 2 0 0 1 2 1 5 2 3 2 1 4 4 6 14 15 4 5 7 5 1 8 13 8 5 4 5 7 4 6 6 4 5 4 1 3 4 1 1 3 3 4 4 5 4 4 4 7 8 8 6 3 4 5 4 3 5 5 4 4 2 2 5 8 9 9 9 9 12 18 22 23 26 29 30 31
8 6 6 6 6 6 5 4 5 4 4 3 2 1 0 2 1 4 4 1 1 2 3 4 4 6 12 11 3 4 5 4 5 9 9 6 5 7 8 8 4 3 5 4 5 6 4 4 4 1 3 4 5 5 7 10 9 7 2 7 8 6 4 2 2 3 4 1 3 5 3 4 2 3 6 7 6 10 11 9 11 17 22 25 27 30 31 32
9 7 7 6 6 6 5 4 5 4 4 3 2 2 1 1 3 6 1 2 1 3 4 3 4 5 7 5 3 6 5 5 7 5 6 5 5 8 8 4 3 3 2 2 3 5 4 3 2 3 6 7 5 2 5 8 9 6 1 4 5 4 2 1 2 2 3 1 3 4 4 4 2 3 7 7 4 8 13 11 12 16 21 26 28 30 32 33
9 8 8 7 6 6 5 4 4 4 4 4 3 2 2 2 3 2 2 3 2 3 2 1 3 4 4 2 2 5 4 5 5 4 3 3 3 5 4 3 3 4 3 3 3 3 4 3 2 3 4 5 3 2 2 1 3 2 1 2 2 2 1 1 2 1 2 1 2 3 5 2 2 2 3 8 6 7 12 13 15 18 21 24 26 28 31 32
10 9 8 7 6 6 5 5 5 5 5 4 3 2 4 5 1 3 2 2 1 2 1 1 3 3 3 4 3 4 3 3 4 4 2 2 4 3 2 1 2 1 1 3 4 4 3 3 3 2 1 2 1 2 2 3 3 3 1 0 1 1 2 2 2 1 1 2 2 1 3 1 3 1 1 5 7 8 15 17 20 23 24 25 27 28 29 32
10 9 8 8 7 6 6 5 5 5 4 3 2 1 4 2 2 2 2 3 2 3 1 0 4 5 2 2 3 3 2 2 3 5 4 4 4 4 4 3 3 1 2 1 2 3 3 2 3 3 1 1 2 2 1 1 2 2 1 0 1 1 1 2 2 1 2 2 2 1 1 1 1 1 3 6 9 8 15 20 22 24 25 25 27 28 29 31
10 9 9 8 7 7 6 6 6 5 5 4 2 4 2 2 3 2 3 4 1 3 3 1 3 4 4 3 3 2 1 2 4 4 4 3 2 3 4 4 3 2 1 1 2 2 2 3 4 2 1 1 1 1 2 0 1 1 1 1 0 1 1 1 2 2 3 3 2 1 1 1 1 2 5 7 5 4 13 20 22 23 24 25 27 29 30 31
10 9 8 8 7 7 7 7 7 6 5 3 4 3 3 4 2 3 3 1 1 1 2 4 3 3 4 4 4 4 2 1 4 4 3 2 1 3 2 3 2 2 1 0 2 2 2 4 5 3 2 1 1 2 2 1 1 1 0 1 1 2 2 1 1 1 3 3 1 0 0 1 2 1 5 7 2 7 10 16 21 24 26 27 27 29 30 31
10 9 8 8 7 7 7 7 8 6 5 2 3 1 4 3 2 3 2 2 1 1 4 3 2 1 2 3 4 5 3 1 3 3 3 3 1 3 3 4 2 1 0 2 1 2 1 4 6 2 2 2 1 2 2 3 2 0 0 1 1 2 2 1 1 1 2 2 1 0 0 2 1 1 4 7 3 8 8 12 17 21 26 27 27 30 32 33
10 9 8 8 8 7 8 8 8 6 3 2 1 2 2 2 2 2 2 3 2 1 5 1 2 0 0 1 4 5 3 3 3 3 2 2 2 2 2 4 2 1 2 1 1 2 1 2 5 2 1 3 2 1 2 2 3 2 1 1 0 1 1 2 1 2 2 2 1 1 1 1 1 1 4 6 2 5 9 11 11 15 22 25 26 29 31 31
10 8 7 8 8 8 9 8 7 5 2 1 2 2 1 2 2 3 3 3 2 2 3 2 2 2 0 2 2 4 3 2 2 3 1 1 3 1 2 1 3 3 3 2 2 2 1 1 4 4 3 2 3 3 3 4 3 2 2 2 1 1 1 0 0 1 2 3 2 1 2 1 2 2 4 5 6 3 7 10 9 13 21 24 26 28 30 30
10 6 5 8 10 9 9 8 6 4 1 2 3 2 0 2 3 4 4 3 2 2 1 2 2 1 2 2 2 3 2 1 1 1 1 1 3 3 1 1 3 6 5 1 3 2 2 0 3 5 3 2 2 2 1 2 3 3 3 3 3 2 1 0 1 1 2 3 2 2 1 3 2 2 4 6 7 5 4 6 7 13 19 21 24 27 29 31
10 4 4 9 11 9 10 7 3 2 2 1 2 1 1 2 3 4 4 3 2 1 2 3 3 2 2 1 2 2 1 2 1 0 1 2 2 2 2 0 1 5 5 2 1 2 1 1 2 4 3 2 2 1 1 1 1 1 1 2 2 2 1 1 1 2 1 2 2 3 2 3 3 2 4 5 5 5 3 4 6 12 17 19 21 25 28 30
9 3 4 11 12 10 10 4 1 2 2 1 1 1 1 2 3 3 4 4 2 1 2 3 2 2 2 2 2 1 1 2 1 0 2 3 2 3 4 4 5 3 1 1 3 2 1 0 1 3 2 1 3 0 2 0 1 2 1 0 1 1 1 1 2 1 2 2 0 1 2 2 3 1 3 5 5 6 5 6 7 11 16 18 20 22 25 27
6 4 7 12 13 12 8 1 2 1 1 1 1 1 2 2 2 3 3 3 2 1 1 1 2 2 1 1 0 1 2 2 2 2 2 3 4 6 6 7 8 3 0 2 3 1 1 1 2 4 4 3 3 1 2 1 1 0 2 1 1 2 1 0 1 2 2 3 2 1 2 2 3 2 3 6 6 3 5 8 9 11 14 17 19 21 23 25
6 5 7 11 13 12 6 1 2 2 2 1 1 0 2 2 3 3 3 3 3 2 2 1 2 2 2 2 2 2 3 1 2 3 2 2 4 7 7 6 6 3 1 1 2 3 3 1 1 3 4 5 5 4 3 2 2 1 2 2 2 3 2 1 1 2 3 3 1 2 1 3 4 3 3 4 4 2 5 7 10 11 13 16 18 20 21 23
7 5 4 9 13 11 5 2 3 3 2 1 1 1 2 2 4 4 2 3 4 3 2 1 2 2 2 1 1 2 2 2 3 3 2 2 4 5 4 5 5 3 3 3 3 3 1 0 2 3 3 2 2 3 3 3 3 2 3 4 3 3 2 1 1 2 2 2 2 3 1 3 4 4 5 4 3 2 2 5 9 10 12 15 16 18 19 20
6 3 2 5 9 9 6 4 3 4 4 3 0 2 3 1 3 4 2 2 4 3 2 1 3 2 1 0 0 3 2 2 1 2 2 3 4 3 3 6 6 5 6 6 3 1 3 1 2 4 4 3 3 4 3 2 3 4 6 7 5 4 2 1 2 3 2 1 3 0 2 1 2 3 2 2 2 1 1 3 6 7 9 12 13 15 17 18
4 2 3 4 4 6 6 6 6 5 4 5 3 1 4 3 1 2 3 2 3 4 2 0 2 3 2 2 1 2 3 1 1 2 3 4 4 5 7 6 4 5 8 5 1 1 3 2 2 2 5 5 4 4 3 2 1 3 6 8 8 8 6 3 4 3 3 4 2 2 3 3 2 2 2 3 3 3 4 5 6 6 7 8 10 12 13 15
4 2 4 5 3 4 3 6 12 10 4 5 4 1 4 4 1 3 4 2 2 4 3 1 1 5 6 4 3 1 3 2 2 3 3 2 3 6 7 4 2 4 8 3 1 2 3 1 2 1 4 6 3 3 2 1 1 3 4 6 7 8 7 4 4 1 3 4 3 4 4 4 3 3 3 4 4 4 5 5 5 5 6 7 8 10 12 13
6 3 4 5 4 4 3 5 12 13 7 4 3 2 5 6 5 4 2 3 0 4 4 2 5 7 6 4 3 2 2 1 2 4 2 2 3 3 4 3 2 5 8 4 1 1 3 1 1 2 5 7 3 1 1 1 3 4 4 5 4 4 3 1 2 1 2 4 3 3 4 2 3 4 5 4 3 2 2 3 3 4 5 7 7 8 11 12
7 4 4 5 3 3 3 4 9 9 5 3 3 3 4 6 6 4 3 5 3 2 4 5 7 5 6 4 4 3 6 7 3 4 3 1 3 1 1 2 2 5 8 4 1 2 2 2 1 3 3 7 3 3 3 4 3 4 6 5 3 3 3 2 2 1 2 4 3 4 6 2 3 4 4 3 1 3 4 4 4 4 4 5 6 8 9 10
9 4 4 4 2 3 4 4 7 6 2 3 4 3 3 6 8 6 4 6 6 4 6 9 7 4 5 4 5 9 10 8 7 7 5 4 4 3 2 2 1 4 6 3 2 3 3 2 2 4 3 5 2 4 5 4 4 3 7 8 7 4 3 2 2 1 2 3 3 5 5 2 2 3 3 2 0 2 4 4 4 5 4 4 5 6 6 7
15 7 4 4 2 3 6 4 4 4 3 5 7 5 4 5 8 9 4 5 7 6 7 10 8 4 4 4 8 13 14 9 8 9 7 7 8 7 6 6 3 2 3 2 2 2 2 2 1 3 2 5 4 4 3 4 6 5 6 5 4 3 2 2 2 2 3 3 4 4 4 4 2 2 1 1 2 1 2 1 2 3 4 4 5 6 6 6
Wind_Direction
36 34 34 29 27 30 33 38 24 30 80 111 125 123 119 103 75 56 39 30 21 16 10 7 8 7 3 356 360 4 3 22 45 42 39 34 26 12 359 349 342 338 335 333 334 342 348 309 286 278 272 264 283 296 279 249 225 217 190 213 227 222 213 182 174 190 197 214 212 215 212 196 160 152 157 152 151 142 149 154 156 174 171 171 173 164 164 164
27 31 33 28 26 30 30 22 10 17 43 100 132 135 125 103 73 53 37 28 21 14 8 6 10 11 5 358 360 7 11 40 52 40 36 23 8 358 346 339 337 336 335 331 336 349 356 338 333 325 312 309 303 295 288 268 225 217 193 231 230 220 227 216 193 188 195 223 229 236 232 209 184 165 161 152 145 142 133 118 138 148 152 165 165 163 166 166
20 25 29 27 28 30 18 5 355 16 63 143 148 141 127 95 70 51 35 25 18 11 4 3 11 14 7 0 358 2 13 63 44 33 28 8 355 346 338 335 336 334 333 331 337 346 340 335 346 339 330 321 298 297 300 291 254 228 219 238 239 262 275 268 245 211 214 219 226 242 244 220 192 173 169 160 161 165 149 146 146 145 154 162 164 165 168 167
12 18 22 22 27 20 7 4 344 352 71 171 160 144 128 91 73 50 35 24 15 7 1 0 5 7 4 360 354 354 6 109 34 27 17 1 348 337 335 336 336 332 328 329 332 333 317 309 325 333 330 313 291 303 298 267 285 260 219 243 273 305 297 273 274 270 257 247 249 243 236 216 186 176 175 159 156 194 174 169 174 172 165 163 165 167 169 169
3 11 13 16 21 6 3 8 358 341 171 180 164 148 131 98 78 52 37 22 13 6 360 357 354 351 354 356 354 352 5 124 12 17 10 359 345 333 334 334 334 328 322 327 330 317 297 301 318 328 323 298 295 307 295 267 284 284 261 286 298 306 309 279 282 297 296 308 329 269 215 194 180 185 187 168 160 198 190 185 189 188 178 169 168 169 170 170
354 3 7 12 10 357 359 3 2 4 178 179 168 151 132 107 83 56 39 22 11 4 0 356 352 350 349 353 352 353 30 67 357 9 3 353 344 333 331 330 331 323 314 317 326 321 302 318 335 339 337 308 296 280 282 291 293 280 280 296 299 298 295 287 284 287 297 307 322 306 236 189 169 179 196 186 189 193 193 194 190 189 185 174 169 170 171 172
350 357 3 7 1 352 353 356 3 9 185 177 169 152 135 117 89 60 38 22 8 0 358 357 357 355 352 354 355 8 61 59 358 0 349 345 343 337 334 333 332 320 308 305 313 327 314 318 328 337 346 305 299 282 285 302 301 275 273 294 297 295 289 288 287 284 289 293 295 293 277 217 173 179 191 198 232 199 195 195 186 180 175 170 169 171 173 174
347 356 1 5 356 345 349 351 351 320 188 177 172 157 145 130 100 65 40 21 5 356 354 359 1 359 356 358 4 25 67 30 353 345 338 341 342 337 336 337 336 316 295 292 301 308 305 315 326 325 326 268 303 301 300 310 305 259 249 292 298 298 295 293 292 286 288 289 280 273 253 245 253 238 184 201 229 199 193 192 181 171 167 168 170 172 172 173
346 353 356 360 345 339 344 339 336 255 197 184 175 162 153 142 113 72 42 18 2 352 351 359 1 359 357 357 5 22 34 353 342 335 334 339 340 329 323 329 334 317 274 262 269 280 289 303 325 332 316 290 298 294 305 316 297 299 311 309 302 302 306 302 298 291 292 289 259 251 233 232 261 279 187 203 213 190 187 184 172 166 165 167 170 172 172 172
345 348 351 352 335 338 337 328 325 236 211 188 178 167 162 155 128 89 45 13 358 350 353 359 358 356 353 353 3 25 2 346 334 335 336 337 338 328 324 329 325 314 291 259 253 258 266 270 289 320 311 290 288 281 291 282 279 313 322 315 300 295 300 297 295 295 296 279 241 228 224 217 209 220 211 196 184 172 171 168 165 164 166 168 171 173 173 174
344 348 351 346 331 336 333 318 304 250 208 191 186 174 168 164 152 127 37 358 347 347 355 358 351 345 345 349 359 8 348 339 329 339 336 330 333 329 328 327 307 293 295 290 287 269 257 255 271 295 295 283 298 286 277 274 302 312 321 320 304 299 294 280 283 291 293 257 235 221 229 211 195 217 215 184 168 166 165 162 164 165 167 170 172 173 174 175
339 348 348 340 332 334 328 312 290 242 205 196 187 179 176 174 174 182 296 328 329 339 354 354 343 336 340 348 351 331 334 323 326 338 331 325 329 330 330 320 293 277 278 293 321 304 256 244 255 261 253 276 316 297 278 298 317 313 317 313 297 308 296 264 265 278 269 216 210 180 272 237 204 208 176 178 168 164 167 165 165 166 168 171 172 173 174 178
336 353 347 336 333 331 327 317 278 239 204 192 187 185 181 183 198 220 274 309 315 330 350 348 335 330 337 344 331 329 331 304 318 332 327 323 326 333 332 314 291 278 271 273 295 311 276 238 240 248 254 268 282 271 285 302 313 307 301 252 283 312 289 246 245 256 236 201 182 164 226 239 203 175 162 172 169 161 161 163 166 168 169 171 172 173 176 182
347 355 341 336 335 332 329 323 269 241 195 187 189 187 185 196 217 243 282 299 307 325 346 339 329 330 335 337 311 339 343 317 321 330 325 320 323 332 333 315 295 282 269 260 263 289 312 251 233 243 256 253 260 276 296 305 309 290 283 311 255 270 271 242 209 195 193 198 178 176 242 235 190 169 167 171 171 162 157 161 167 168 170 172 173 176 180 184
349 343 340 339 334 334 333 309 266 223 186 185 186 188 195 205 221 265 288 295 308 330 342 330 326 330 330 329 337 346 346 333 329 331 322 315 319 326 331 326 303 285 267 261 265 280 308 261 225 233 256 255 261 279 314 316 329 340 274 313 283 219 276 296 254 184 182 189 177 186 243 226 202 172 170 172 173 167 159 162 167 168 171 172 174 180 182 184
346 344 344 338 335 339 331 286 247 199 180 181 186 193 202 213 240 274 287 298 314 339 339 324 324 328 323 325 346 346 343 336 333 328 316 313 319 325 331 330 314 285 265 258 266 274 281 251 229 238 250 248 215 184 352 323 316 6 201 239 260 225 248 293 296 215 188 144 182 204 227 206 223 177 174 174 173 168 161 163 167 170 173 174 177 182 182 183
350 347 344 338 339 340 305 272 208 184 175 179 187 196 211 233 254 277 284 295 318 335 326 312 322 326 301 332 343 340 337 332 327 320 317 317 320 327 328 324 317 285 259 250 256 253 248 235 218 240 245 222 151 139 59 278 254 283 224 236 243 223 220 222 288 256 194 169 193 213 222 240 252 175 172 174 172 167 164 166 169 171 173 175 179 181 182 184
354 351 345 340 341 333 281 249 192 174 172 177 186 198 228 250 262 275 275 288 318 327 316 297 331 338 259 319 333 330 330 327 319 312 317 320 318 324 324 315 307 285 264 251 251 235 231 237 205 266 295 216 183 154 196 222 204 211 208 239 258 233 229 213 243 247 182 187 202 208 217 222 241 174 169 171 173 170 167 168 170 173 174 176 179 181 183 187
357 356 345 340 339 313 256 229 184 169 170 176 187 210 247 268 277 272 259 288 306 307 290 288 325 330 262 305 322 324 326 324 317 310 315 323 318 319 317 300 282 262 249 27 247 215 204 238 265 269 263 217 208 194 211 215 172 178 189 196 223 235 245 231 246 231 179 193 208 208 213 198 193 185 170 172 176 174 168 167 172 174 175 176 179 182 185 188
355 360 341 337 330 279 243 218 179 171 176 179 192 233 259 276 285 269 263 278 276 272 271 283 289 269 275 301 318 324 327 328 324 314 316 317 309 312 305 277 264 243 204 188 211 197 180 193 242 226 227 219 214 209 218 231 223 208 196 209 219 234 253 242 253 240 187 194 214 206 204 192 187 183 175 176 175 173 169 170 174 175 176 178 179 182 185 188
335 355 337 331 311 258 228 204 180 177 182 186 196 253 250 344 4 303 307 285 259 293 292 288 282 275 289 304 314 323 325 328 331 324 320 308 300 308 290 242 241 265 233 197 194 172 161 206 239 229 230 226 217 209 215 233 246 243 233 245 247 237 250 247 244 233 190 200 222 200 189 191 188 181 174 171 169 181 182 178 175 175 179 182 181 181 182 187
233 306 325 323 292 238 211 189 178 184 189 194 187 350 342 36 356 317 324 291 288 317 300 295 283 283 300 305 308 318 316 317 328 329 323 302 294 298 257 215 210 254 246 168 185 202 182 232 244 241 232 221 220 206 206 222 229 236 231 234 247 236 252 264 248 223 189 200 222 195 187 194 192 188 177 175 182 189 188 187 182 178 180 183 183 181 182 186
216 253 313 310 271 220 203 185 182 187 189 201 349 4 14 21 349 342 353 294 304 335 314 302 290 293 306 308 310 312 306 300 307 324 327 301 288 289 253 230 231 260 252 172 209 223 233 238 235 238 216 196 222 204 191 223 229 227 220 221 239 224 212 258 252 207 189 204 228 189 180 183 183 191 198 188 188 182 183 191 192 186 184 185 186 184 185 188
210 240 291 286 242 202 199 193 188 184 186 196 335 338 2 9 356 357 2 303 321 340 324 305 295 294 303 316 320 310 303 291 284 317 327 304 288 288 262 235 230 263 243 214 218 227 253 250 192 187 205 212 235 216 188 209 232 227 219 218 228 218 211 228 245 190 186 208 221 169 159 184 175 184 231 195 167 157 169 181 190 193 190 186 184 184 188 190
207 225 256 256 217 197 203 206 196 184 180 174 244 301 9 8 5 7 12 63 347 314 321 314 301 300 311 327 330 316 302 289 300 322 317 300 289 289 283 251 216 256 257 241 237 242 261 262 173 194 237 228 231 231 209 199 222 238 221 217 221 219 216 214 207 183 183 210 211 176 167 187 176 186 209 194 145 151 163 170 181 187 187 185 183 187 191 190
203 214 234 230 205 194 201 210 203 190 180 170 222 326 33 14 24 38 48 60 359 303 325 324 310 326 329 334 330 325 310 296 324 324 307 301 296 287 296 265 206 247 274 273 259 252 265 242 149 243 259 234 224 233 211 184 211 244 210 210 217 216 215 200 176 199 200 194 193 188 179 158 165 193 201 193 163 157 166 171 177 179 180 184 186 192 195 192
198 209 216 214 202 194 200 209 205 194 177 166 194 46 47 17 39 102 59 41 356 301 315 287 302 332 332 331 325 327 319 310 325 324 311 313 299 282 283 271 244 256 273 325 285 244 238 248 207 247 275 247 223 235 203 174 198 246 184 190 204 207 216 199 171 216 225 132 120 197 164 132 166 191 187 190 178 169 177 176 175 179 180 181 185 193 196 196
194 201 205 209 203 198 204 212 205 194 184 186 191 107 65 18 345 160 88 60 315 314 319 275 291 307 326 331 312 271 279 301 322 332 326 322 302 288 256 248 258 264 265 273 278 282 154 271 298 309 302 277 220 240 224 181 192 249 207 181 191 197 202 183 172 214 209 144 149 198 142 127 186 178 165 186 189 186 189 184 178 180 183 182 187 194 198 199
190 198 203 205 203 203 209 212 206 199 196 197 195 177 352 289 252 91 79 85 287 349 349 310 315 307 334 343 292 240 294 292 257 312 321 326 310 313 280 267 265 271 271 219 239 287 311 298 323 337 266 277 234 233 229 193 208 268 226 174 165 171 167 162 195 187 161 153 171 182 149 128 180 198 170 183 199 201 193 190 185 181 184 185 187 194 199 199
189 194 198 195 195 204 210 211 206 200 196 194 207 214 278 260 151 65 43 262 272 335 303 315 317 315 347 357 311 298 322 278 282 306 319 332 325 334 317 284 263 274 280 226 235 272 283 311 333 286 245 264 271 249 205 200 228 265 241 150 135 131 139 176 224 141 119 173 190 172 129 100 139 208 193 186 201 199 189 186 184 181 184 186 189 194 199 200
188 190 194 190 191 199 204 207 203 197 195 187 208 221 217 287 75 82 52 257 269 327 334 332 319 339 13 26 307 318 335 297 306 334 334 337 344 351 355 328 301 328 319 284 267 270 281 311 296 259 259 259 283 295 171 194 238 263 223 140 125 117 137 101 6 67 129 202 245 174 103 74 152 203 209 212 211 189 190 187 178 177 182 185 189 194 199 201
185 188 188 188 192 192 190 194 193 190 188 176 200 219 144 34 27 96 260 321 321 302 347 312 305 344 2 12 268 289 316 304 323 15 343 348 12 345 9 34 341 351 357 343 331 295 282 270 249 253 251 246 288 349 74 48 324 335 129 166 135 120 139 106 69 40 120 128 291 161 111 49 234 207 221 223 217 192 194 190 177 176 180 186 189 192 197 200
185 185 182 188 191 187 182 179 182 185 185 179 203 208 87 69 350 217 260 328 276 272 315 269 294 321 325 330 294 280 302 279 322 4 332 9 30 338 316 340 346 15 305 327 343 330 308 271 299 351 216 230 6 19 8 1 352 6 77 211 299 161 148 133 125 53 96 105 11 112 133 233 235 246 308 239 242 216 194 186 180 180 183 186 189 191 195 198
185 180 179 186 183 188 186 173 179 179 178 188 191 95 61 52 230 191 259 262 248 299 322 330 316 324 341 322 289 309 341 286 327 8 349 4 24 349 327 317 346 35 239 299 336 330 344 316 327 5 9 6 40 58 48 325 328 344 340 33 331 269 163 137 139 117 115 106 58 47 202 204 208 272 287 276 278 238 190 178 177 180 184 186 187 189 192 196
184 178 179 184 180 188 181 171 182 173 181 200 95 70 97 235 234 170 228 247 259 303 304 27 19 1 352 310 292 344 68 282 334 10 353 3 14 331 330 302 318 11 46 355 320 305 332 283 273 298 311 353 348 233 144 148 322 351 343 8 14 226 177 153 144 133 125 110 93 130 193 207 232 286 305 308 297 197 168 163 165 172 179 182 185 189 191 193
180 176 180 183 182 184 174 173 179 172 190 186 68 63 198 215 214 172 180 180 143 245 326 3 42 44 341 312 315 349 71 227 329 356 330 341 322 282 299 270 284 23 57 341 314 337 347 283 285 347 360 328 267 230 160 163 262 97 75 301 245 181 161 154 87 81 110 115 108 59 107 304 294 283 328 342 84 146 152 158 165 170 174 178 185 189 191 192
176 176 182 184 182 178 173 175 174 181 204 149 88 210 214 202 188 174 149 118 164 143 73 21 343 42 321 309 304 315 345 296 322 359 319 322 326 262 291 292 237 116 322 212 248 310 312 286 298 348 2 317 277 259 246 200 185 100 354 274 243 181 190 188 103 77 84 109 106 37 183 299 314 146 345 353 107 150 162 169 170 170 172 178 185 189 193 195
171 173 180 181 178 174 172 174 177 189 197 101 95 237 203 182 196 195 171 137 160 99 86 115 260 322 176 276 286 289 334 343 330 0 332 324 325 252 330 317 243 100 5 203 200 293 261 298 303 283 259 309 342 352 312 252 203 226 284 307 96 155 265 336 103 136 120 130 152 15 332 249 187 201 334 336 322 161 168 175 173 171 174 180 187 191 195 196
166 169 176 175 172 172 171 174 179 181 156 107 225 233 192 217 216 188 177 150 145 115 97 175 235 359 99 189 264 289 329 347 326 349 357 360 325 285 93 334 264 336 351 185 188 284 262 273 298 284 265 318 7 38 8 331 310 294 328 353 20 149 197 318 82 131 126 142 155 44 354 283 189 237 292 291 290 268 179 176 178 179 181 183 187 191 194 195
164 159 168 171 168 169 168 168 171 158 137 219 210 201 218 231 200 172 171 167 158 146 133 176 173 346 289 243 269 284 315 312 276 326 295 300 319 295 169 154 264 315 333 193 197 292 322 276 282 297 324 12 9 29 42 300 325 347 4 16 356 336 357 46 40 33 105 135 143 113 57 298 258 238 275 281 287 282 207 180 182 185 187 189 190 191 193 195
164 150 163 168 165 167 165 156 148 133 139 230 213 190 268 201 174 163 171 181 174 160 152 147 156 195 226 269 285 258 298 317 283 266 277 287 333 301 262 187 291 316 346 25 278 303 320 315 274 298 344 16 283 302 103 213 253 298 5 19 314 294 15 56 59 9 40 103 139 137 129 286 273 219 258 273 279 273 234 176 176 185 189 194 196 195 196 198
168 151 164 168 165 166 162 148 59 91 120 179 212 185 184 181 163 162 182 184 178 188 134 122 160 203 193 203 258 252 249 279 272 199 265 248 225 232 260 323 337 318 327 314 291 279 248 27 318 271 271 282 271 258 92 119 220 220 245 4 266 281 31 71 83 23 7 38 350 127 99 284 273 223 250 270 288 280 236 190 180 184 190 196 200 202 201 202
167 142 159 169 169 166 160 136 335 3 44 193 208 162 169 190 171 161 190 197 180 188 120 98 178 207 215 193 142 281 241 245 224 222 262 250 242 249 262 311 335 341 134 302 304 326 354 34 351 297 291 311 311 2 103 83 96 166 288 314 24 336 320 54 68 69 54 15 341 44 56 293 290 327 297 291 304 280 200 195 191 185 190 196 200 204 206 206
143 124 151 169 173 173 170 178 190 222 282 322 20 97 197 235 212 176 200 216 194 170 147 126 185 218 241 152 140 227 241 250 241 250 269 219 247 278 286 308 331 351 47 323 322 341 343 353 21 357 353 350 344 350 352 344 34 45 295 303 336 341 358 76 49 60 54 359 340 92 91 266 291 351 16 347 341 95 155 186 190 186 192 197 201 205 207 208
137 117 143 173 181 185 197 206 166 163 169 122 27 220 196 251 228 210 209 201 193 177 158 153 160 190 239 154 128 273 254 233 249 286 324 250 263 289 308 323 324 324 318 293 292 328 353 7 59 87 76 23 339 320 320 322 332 327 296 303 328 356 11 132 132 57 49 343 17 80 167 271 320 15 38 7 356 73 126 180 188 193 194 194 199 203 204 206
155 138 139 172 192 205 229 243 181 145 150 156 192 226 181 193 246 221 196 190 208 198 162 146 147 144 278 237 355 308 274 233 259 315 310 271 273 286 312 318 305 307 327 318 296 33 98 63 52 131 159 180 203 242 281 342 331 310 313 322 338 351 333 178 105 73 121 110 40 6 218 234 359 38 47 319 296 313 274 214 205 214 201 193 197 201 203 206
174 186 169 161 198 220 238 248 210 176 155 170 181 192 180 188 293 219 203 217 214 202 190 77 134 150 205 188 147 278 279 304 331 281 262 245 261 292 306 302 281 306 336 336 259 96 77 10 1 161 209 226 219 250 306 16 310 278 307 317 324 337 349 63 94 103 141 110 75 236 203 149 185 218 215 242 250 265 258 232 221 225 210 199 200 201 205 206
190 215 185 171 191 200 210 234 212 195 165 165 176 155 170 189 210 195 203 198 197 206 202 291 249 199 205 196 141 190 295 338 309 257 267 280 291 322 324 297 238 324 346 358 211 95 97 322 339 7 276 275 258 265 292 351 284 265 284 296 308 334 357 54 89 147 158 127 154 188 158 143 199 237 241 244 254 261 247 224 217 215 203 198 198 202 204 202
204 235 206 193 214 200 189 214 196 185 177 163 168 173 173 192 217 221 188 114 358 252 203 224 259 220 205 213 158 151 230 251 302 278 261 289 296 328 334 308 275 338 359 9 304 85 113 253 351 55 310 308 322 302 302 32 346 315 295 287 284 297 314 72 115 198 140 103 112 132 117 122 239 235 246 275 284 246 206 176 183 193 195 198 201 204 205 202
204 228 202 188 214 205 186 181 167 167 180 177 196 226 182 184 210 226 197 159 168 242 187 214 247 204 169 189 185 207 212 182 198 250 211 232 309 296 280 273 276 330 353 5 328 2 23 305 54 88 335 316 350 47 35 54 34 311 308 326 332 319 340 37 46 7 88 78 46 71 82 49 295 256 257 290 273 188 170 154 160 164 174 193 204 210 211 209
198 202 181 165 177 176 164 158 148 145 170 191 200 223 197 202 204 188 201 212 195 179 187 207 217 159 122 156 204 238 240 207 210 240 227 226 263 260 248 258 272 327 337 346 333 348 20 10 10 59 28 299 328 38 8 21 45 339 331 348 351 354 360 348 329 325 132 124 87 78 97 143 290 324 316 314 41 156 162 161 170 174 178 189 201 209 212 210
200 197 182 160 176 189 168 150 136 150 201 205 193 195 201 216 198 172 187 252 225 207 213 208 191 127 110 179 223 242 249 245 246 258 264 253 254 266 272 271 265 266 295 324 328 327 65 96 341 51 66 278 302 20 360 23 39 353 327 336 320 312 325 310 310 279 219 148 118 131 167 207 267 4 3 307 339 37 142 160 179 192 209 221 220 219 213 204